TimeEST,TemperatureF,Dew PointF,Humidity,Sea Level PressureIn,VisibilityMPH,Wind Direction,Wind SpeedMPH,Gust SpeedMPH,PrecipitationIn,Events,Conditions,WindDirDegrees,DateUTC
12:15 AM,28.4,17.8,64,30.29,10.0,NW,9.2,-,N/A,,Overcast,310,2012-11-27 05:15:00
12:34 AM,28.4,18.1,65,30.29,10.0,West,6.9,-,N/A,,Overcast,280,2012-11-27 05:34:00
12:55 AM,28.4,18.7,67,30.28,10.0,West,8.1,-,N/A,,Overcast,280,2012-11-27 05:55:00
1:15 AM,28.4,18.3,66,30.28,10.0,WNW,6.9,-,N/A,,Overcast,300,2012-11-27 06:15:00
1:35 AM,28.4,18.3,66,30.28,10.0,West,5.8,-,N/A,,Overcast,270,2012-11-27 06:35:00
1:55 AM,28.4,17.6,64,30.28,10.0,WNW,5.8,-,N/A,,Overcast,290,2012-11-27 06:55:00
2:15 AM,28.4,19.0,68,30.29,10.0,West,6.9,-,N/A,,Overcast,270,2012-11-27 07:15:00
2:34 AM,28.4,18.9,67,30.29,10.0,West,10.4,-,N/A,,Overcast,270,2012-11-27 07:34:00
2:54 AM,28.4,19.2,69,30.29,10.0,West,6.9,-,N/A,,Overcast,280,2012-11-27 07:54:00
3:15 AM,28.4,20.3,72,30.29,10.0,West,9.2,-,N/A,,Overcast,260,2012-11-27 08:15:00
3:35 AM,28.2,19.6,70,30.28,10.0,West,9.2,16.1,N/A,,Overcast,260,2012-11-27 08:35:00
3:55 AM,28.0,18.9,68,30.28,10.0,West,11.5,21.9,N/A,,Overcast,260,2012-11-27 08:55:00
4:15 AM,28.0,19.4,70,30.28,10.0,West,9.2,-,N/A,,Overcast,270,2012-11-27 09:15:00
4:35 AM,28.2,19.2,69,30.28,10.0,West,10.4,-,N/A,,Overcast,260,2012-11-27 09:35:00
4:55 AM,28.2,19.2,69,30.27,10.0,West,16.1,-,N/A,,Overcast,270,2012-11-27 09:55:00
5:14 AM,28.4,19.2,69,30.27,10.0,West,8.1,-,N/A,,Overcast,260,2012-11-27 10:14:00
5:35 AM,28.4,19.2,69,30.27,10.0,West,9.2,-,N/A,,Overcast,260,2012-11-27 10:35:00
5:54 AM,28.4,20.1,71,30.27,10.0,West,11.5,-,N/A,,Overcast,260,2012-11-27 10:54:00
6:15 AM,28.4,19.8,70,30.27,10.0,WSW,8.1,-,N/A,,Overcast,240,2012-11-27 11:15:00
7:34 AM,27.7,19.2,71,30.27,10.0,SW,6.9,-,N/A,,Overcast,220,2012-11-27 12:34:00
7:55 AM,27.9,19.2,70,30.27,10.0,WSW,9.2,-,N/A,,Overcast,240,2012-11-27 12:55:00
8:15 AM,28.0,19.0,69,30.28,10.0,SW,6.9,-,N/A,,Overcast,230,2012-11-27 13:15:00
8:35 AM,28.2,19.2,69,30.27,10.0,SW,9.2,-,N/A,,Overcast,230,2012-11-27 13:35:00
8:55 AM,28.4,18.7,67,30.28,10.0,SW,8.1,-,N/A,,Overcast,230,2012-11-27 13:55:00
9:15 AM,28.4,18.9,67,30.28,10.0,SW,9.2,-,N/A,,Overcast,220,2012-11-27 14:15:00
9:35 AM,28.4,19.0,68,30.28,10.0,SW,9.2,-,N/A,,Overcast,230,2012-11-27 14:35:00
9:54 AM,28.9,19.0,67,30.28,10.0,SW,12.7,19.6,N/A,,Overcast,230,2012-11-27 14:54:00
10:15 AM,29.3,18.9,65,30.28,10.0,SW,11.5,23.0,N/A,,Overcast,220,2012-11-27 15:15:00
10:35 AM,28.9,19.2,67,30.28,10.0,SW,10.4,16.1,N/A,,Scattered Clouds,230,2012-11-27 15:35:00
10:54 AM,29.3,20.3,69,30.28,10.0,WSW,15.0,19.6,N/A,,Mostly Cloudy,240,2012-11-27 15:54:00
11:15 AM,30.0,20.1,67,30.27,10.0,SW,16.1,20.7,N/A,,Overcast,220,2012-11-27 16:15:00
11:35 AM,30.2,20.1,66,30.27,10.0,SW,16.1,19.6,N/A,,Overcast,230,2012-11-27 16:35:00
11:55 AM,30.0,20.3,67,30.26,10.0,SW,15.0,19.6,N/A,,Overcast,220,2012-11-27 16:55:00
12:15 PM,30.0,19.4,65,30.25,10.0,SSW,13.8,20.7,N/A,,Overcast,210,2012-11-27 17:15:00
12:34 PM,30.2,18.0,60,30.24,10.0,SW,13.8,19.6,N/A,,Overcast,220,2012-11-27 17:34:00
12:55 PM,30.7,18.9,61,30.24,10.0,SW,12.7,18.4,N/A,,Overcast,220,2012-11-27 17:55:00
1:15 PM,30.9,18.5,60,30.23,10.0,SW,16.1,25.3,N/A,,Overcast,230,2012-11-27 18:15:00
1:35 PM,31.1,18.3,59,30.22,10.0,SW,8.1,20.7,N/A,,Overcast,220,2012-11-27 18:35:00
1:55 PM,31.5,17.2,56,30.21,10.0,SW,12.7,19.6,N/A,,Overcast,220,2012-11-27 18:55:00
2:15 PM,31.8,17.4,55,30.20,10.0,SW,12.7,21.9,N/A,,Overcast,230,2012-11-27 19:15:00
2:35 PM,31.5,17.6,57,30.19,10.0,SW,11.5,19.6,N/A,,Mostly Cloudy,220,2012-11-27 19:35:00
2:55 PM,31.8,17.4,55,30.19,10.0,SW,10.4,20.7,N/A,,Scattered Clouds,220,2012-11-27 19:55:00
3:15 PM,31.8,17.6,56,30.19,10.0,SW,10.4,20.7,N/A,,Clear,220,2012-11-27 20:15:00
3:35 PM,31.6,17.8,57,30.19,10.0,SW,11.5,-,N/A,,Mostly Cloudy,220,2012-11-27 20:35:00
3:55 PM,32.0,18.7,58,30.19,10.0,SW,12.7,-,N/A,,Mostly Cloudy,230,2012-11-27 20:55:00
4:14 PM,32.0,18.9,58,30.19,10.0,SW,12.7,17.3,N/A,,Overcast,230,2012-11-27 21:14:00
4:35 PM,32.0,19.4,60,30.18,10.0,SW,13.8,20.7,N/A,,Mostly Cloudy,220,2012-11-27 21:35:00
4:55 PM,31.3,19.4,61,30.18,10.0,SSW,10.4,17.3,N/A,,Overcast,210,2012-11-27 21:55:00
5:15 PM,31.6,19.9,62,30.17,10.0,SW,12.7,17.3,N/A,,Overcast,220,2012-11-27 22:15:00
5:34 PM,32.0,20.3,62,30.17,10.0,SSW,12.7,20.7,N/A,,Overcast,210,2012-11-27 22:34:00
5:54 PM,31.8,20.7,63,30.16,10.0,SSW,10.4,17.3,N/A,,Overcast,210,2012-11-27 22:54:00
6:14 PM,31.8,21.0,64,30.15,10.0,SSW,15.0,18.4,N/A,,Overcast,210,2012-11-27 23:14:00
6:55 PM,31.6,20.7,64,30.14,10.0,South,9.2,19.6,N/A,,Mostly Cloudy,190,2012-11-27 23:55:00
7:14 PM,31.6,20.5,63,30.15,10.0,SW,6.9,-,N/A,,Overcast,220,2012-11-28 00:14:00
7:33 PM,31.8,20.8,64,30.14,10.0,SW,9.2,16.1,N/A,,Overcast,220,2012-11-28 00:33:00
7:55 PM,31.8,22.1,67,30.14,10.0,SSW,9.2,-,N/A,,Overcast,210,2012-11-28 00:55:00
8:14 PM,31.8,22.5,68,30.12,10.0,SSW,12.7,20.7,N/A,,Overcast,200,2012-11-28 01:14:00
8:35 PM,31.5,22.6,70,30.12,10.0,SSW,11.5,20.7,N/A,,Overcast,210,2012-11-28 01:35:00
8:54 PM,31.5,23.0,71,30.12,10.0,SSW,11.5,18.4,N/A,,Mostly Cloudy,210,2012-11-28 01:54:00
9:15 PM,31.6,23.9,73,30.11,10.0,SSW,13.8,19.6,N/A,,Mostly Cloudy,200,2012-11-28 02:15:00
9:34 PM,32.0,24.3,73,30.10,10.0,SSW,12.7,18.4,N/A,,Overcast,210,2012-11-28 02:34:00
9:55 PM,32.0,24.6,74,30.10,10.0,SW,17.3,23.0,N/A,,Overcast,220,2012-11-28 02:55:00
10:14 PM,32.0,25.3,76,30.10,10.0,SSW,9.2,17.3,N/A,,Overcast,210,2012-11-28 03:14:00
10:34 PM,32.0,25.3,76,30.09,10.0,SSW,12.7,21.9,N/A,,Mostly Cloudy,210,2012-11-28 03:34:00
10:54 PM,32.9,25.7,75,30.09,10.0,SSW,13.8,19.6,N/A,,Overcast,210,2012-11-28 03:54:00
11:15 PM,32.4,27.7,83,30.09,4.0,WSW,16.1,20.7,N/A,Snow,Light Snow,250,2012-11-28 04:15:00
11:54 PM,32.0,28.4,87,30.09,3.0,WSW,21.9,29.9,N/A,Snow,Light Snow,250,2012-11-28 04:54:00